| time (UTC) | temp F | wind direction | speed MPH | gust MPH | rain 1hr in | rain 24hr in | rain mn in | humidity % | barometer mb |
| 20260504090105 | 47 | 280 | 0.0 | 0.0 | 0.00 | 0.14 | 0.00 | 82 | 1003.7 |
| 20260504081832 | 48 | 269 | 0.0 | 1.0 | 0.00 | 0.14 | 0.00 | 79 | 1003.6 |
| 20260504081333 | 48 | 269 | 0.0 | 1.0 | 0.00 | 0.14 | 0.00 | 79 | 1003.7 |
| 20260504080831 | 48 | 266 | 0.0 | 1.0 | 0.00 | 0.14 | 0.00 | 79 | 1003.7 |
| 20260504080327 | 49 | 319 | 0.0 | 1.0 | 0.00 | 0.14 | 0.00 | 79 | 1003.7 |
| 20260504070306 | 53 | 330 | 0.0 | 4.0 | 0.00 | 0.14 | 0.00 | 71 | 1004.4 |
| 20260504060239 | 54 | 233 | 0.0 | 4.0 | 0.00 | 0.14 | 0.00 | 70 | 1005.3 |
| 20260504050732 | 57 | 319 | 3.0 | 6.0 | 0.00 | 0.14 | 0.00 | 67 | 1005.6 |
| 20260504050448 | 57 | 9 | 4.0 | 8.0 | 0.00 | 0.14 | 0.00 | 67 | 1005.6 |
| 20260504045728 | 57 | 354 | 3.0 | 8.0 | 0.00 | 0.14 | 0.14 | 67 | 1005.5 |
| 20260504045228 | 57 | 12 | 2.0 | 6.0 | 0.00 | 0.14 | 0.14 | 67 | 1005.5 |
| 20260504044727 | 58 | 349 | 2.0 | 6.0 | 0.00 | 0.14 | 0.14 | 66 | 1005.5 |
| 20260504044227 | 58 | 345 | 2.0 | 6.0 | 0.00 | 0.14 | 0.14 | 66 | 1005.5 |
| 20260504043947 | 58 | 335 | 3.0 | 6.0 | 0.00 | 0.14 | 0.14 | 66 | 1005.5 |
| 20260504043227 | 58 | 344 | 3.0 | 6.0 | 0.00 | 0.14 | 0.14 | 65 | 1005.5 |
| 20260504042725 | 58 | 30 | 3.0 | 7.0 | 0.00 | 0.14 | 0.14 | 65 | 1005.5 |
| 20260504042226 | 58 | 3 | 3.0 | 7.0 | 0.00 | 0.14 | 0.14 | 65 | 1005.5 |
| 20260504041721 | 58 | 347 | 3.0 | 7.0 | 0.00 | 0.14 | 0.14 | 65 | 1005.4 |
| 20260504041442 | 58 | 309 | 3.0 | 7.0 | 0.00 | 0.14 | 0.14 | 65 | 1005.3 |
| 20260504040721 | 58 | 5 | 3.0 | 7.0 | 0.00 | 0.14 | 0.14 | 64 | 1005.3 |
| 20260504040444 | 58 | 346 | 3.0 | 7.0 | 0.00 | 0.14 | 0.14 | 64 | 1005.3 |
| 20260504035941 | 59 | 356 | 3.0 | 7.0 | 0.00 | 0.14 | 0.14 | 63 | 1005.2 |
| 20260504035221 | 59 | 319 | 3.0 | 7.0 | 0.00 | 0.14 | 0.14 | 63 | 1005.2 |
| 20260504034953 | 59 | 337 | 2.0 | 5.0 | 0.00 | 0.14 | 0.14 | 62 | 1005.3 |
| 20260504034223 | 59 | 6 | 2.0 | 5.0 | 0.00 | 0.14 | 0.14 | 62 | 1005.3 |
| 20260504033722 | 59 | 3 | 2.0 | 4.0 | 0.00 | 0.14 | 0.14 | 62 | 1005.4 |
| 20260504033226 | 59 | 305 | 2.0 | 4.0 | 0.00 | 0.14 | 0.14 | 63 | 1005.4 |
| 20260504032725 | 59 | 301 | 1.0 | 4.0 | 0.00 | 0.14 | 0.14 | 63 | 1005.5 |
| 20260504032223 | 59 | 319 | 1.0 | 3.0 | 0.00 | 0.14 | 0.14 | 62 | 1005.6 |
| 20260504031724 | 59 | 300 | 1.0 | 5.0 | 0.00 | 0.14 | 0.14 | 62 | 1005.6 |
| 20260504031451 | 59 | 280 | 1.0 | 5.0 | 0.00 | 0.14 | 0.14 | 62 | 1005.7 |
| 20260504030723 | 59 | 293 | 1.0 | 3.0 | 0.00 | 0.14 | 0.14 | 62 | 1005.7 |
| 20260504030711 | 59 | 317 | 1.0 | 3.0 | 0.00 | 0.14 | 0.14 | 62 | 1005.6 |
| 20260504025723 | 59 | 292 | 1.0 | 4.0 | 0.00 | 0.14 | 0.14 | 62 | 1005.7 |
| 20260504025221 | 59 | 291 | 1.0 | 4.0 | 0.00 | 0.14 | 0.14 | 61 | 1005.7 |
| 20260504024719 | 60 | 302 | 1.0 | 4.0 | 0.00 | 0.14 | 0.14 | 61 | 1005.7 |
| 20260504024442 | 60 | 290 | 1.0 | 5.0 | 0.00 | 0.14 | 0.14 | 61 | 1005.7 |
| 20260504023944 | 60 | 321 | 2.0 | 5.0 | 0.00 | 0.14 | 0.14 | 60 | 1005.6 |
| 20260504023217 | 60 | 321 | 2.0 | 5.0 | 0.00 | 0.14 | 0.14 | 60 | 1005.7 |
| 20260504022714 | 60 | 358 | 3.0 | 6.0 | 0.00 | 0.14 | 0.14 | 59 | 1005.7 |
| 20260504022441 | 61 | 23 | 2.0 | 6.0 | 0.00 | 0.14 | 0.14 | 59 | 1005.7 |
| 20260504021943 | 61 | 303 | 2.0 | 5.0 | 0.00 | 0.14 | 0.14 | 59 | 1005.6 |
| 20260504021843 | 61 | 278 | 3.0 | 7.0 | 0.00 | 0.14 | 0.14 | 59 | 1005.5 |
| 20260504020713 | 61 | 10 | 2.0 | 7.0 | 0.00 | 0.14 | 0.14 | 59 | 1005.5 |
| 20260504020213 | 61 | 284 | 2.0 | 5.0 | 0.00 | 0.14 | 0.14 | 59 | 1005.4 |
| 20260504015929 | 61 | 304 | 3.0 | 5.0 | 0.00 | 0.14 | 0.14 | 59 | 1005.3 |
| 20260504015814 | 61 | 310 | 2.0 | 5.0 | 0.00 | 0.14 | 0.14 | 59 | 1005.4 |
| 20260504014710 | 62 | 314 | 2.0 | 7.0 | 0.00 | 0.14 | 0.14 | 58 | 1005.3 |
| 20260504014210 | 62 | 348 | 3.0 | 7.0 | 0.00 | 0.14 | 0.14 | 58 | 1005.2 |
| 20260504013715 | 62 | 352 | 3.0 | 9.0 | 0.00 | 0.14 | 0.14 | 57 | 1005.3 |
| 20260504013213 | 62 | 1 | 3.0 | 9.0 | 0.00 | 0.14 | 0.14 | 56 | 1005.2 |
| 20260504012712 | 63 | 289 | 4.0 | 9.0 | 0.00 | 0.14 | 0.14 | 56 | 1005.2 |
| 20260504012213 | 63 | 348 | 4.0 | 9.0 | 0.00 | 0.14 | 0.14 | 55 | 1005.1 |
| 20260504011707 | 63 | 316 | 4.0 | 10.0 | 0.00 | 0.14 | 0.14 | 55 | 1005.1 |
| 20260504011433 | 64 | 326 | 5.0 | 10.0 | 0.00 | 0.14 | 0.14 | 54 | 1005.1 |
| 20260504010702 | 64 | 335 | 5.0 | 10.0 | 0.00 | 0.14 | 0.14 | 54 | 1005.1 |
| 20260504010446 | 64 | 342 | 6.0 | 10.0 | 0.00 | 0.14 | 0.14 | 53 | 1005.0 |
| 20260504005702 | 65 | 25 | 6.0 | 10.0 | 0.00 | 0.14 | 0.14 | 52 | 1005.1 |
| 20260504005204 | 65 | 327 | 4.0 | 9.0 | 0.00 | 0.14 | 0.14 | 52 | 1005.1 |
| 20260504004705 | 65 | 352 | 3.0 | 8.0 | 0.00 | 0.14 | 0.14 | 52 | 1005.1 |
| 20260504004427 | 65 | 318 | 3.0 | 8.0 | 0.00 | 0.14 | 0.14 | 51 | 1005.1 |
| 20260504003929 | 66 | 329 | 4.0 | 8.0 | 0.00 | 0.14 | 0.14 | 49 | 1005.0 |
| 20260504003204 | 66 | 3 | 3.0 | 11.0 | 0.00 | 0.14 | 0.14 | 49 | 1005.0 |
| 20260504002704 | 67 | 320 | 4.0 | 11.0 | 0.00 | 0.14 | 0.14 | 48 | 1005.0 |
| 20260504002202 | 67 | 321 | 5.0 | 11.0 | 0.00 | 0.14 | 0.14 | 47 | 1005.0 |
| 20260504001702 | 67 | 337 | 6.0 | 12.0 | 0.00 | 0.14 | 0.14 | 47 | 1005.0 |
| 20260504001204 | 68 | 5 | 6.0 | 12.0 | 0.00 | 0.14 | 0.14 | 46 | 1005.1 |
| 20260504000657 | 68 | 333 | 6.0 | 12.0 | 0.00 | 0.14 | 0.14 | 46 | 1005.1 |
| 20260504000157 | 68 | 1 | 7.0 | 12.0 | 0.00 | 0.14 | 0.14 | 46 | 1005.1 |
| 20260503235657 | 68 | 340 | 7.0 | 12.0 | 0.00 | 0.14 | 0.14 | 45 | 1005.1 |
| 20260503235158 | 68 | 4 | 6.0 | 15.0 | 0.00 | 0.14 | 0.14 | 45 | 1005.0 |
| 20260503234657 | 69 | 297 | 7.0 | 15.0 | 0.00 | 0.14 | 0.14 | 45 | 1005.0 |
| 20260503234157 | 69 | 16 | 8.0 | 15.0 | 0.00 | 0.14 | 0.14 | 45 | 1005.1 |
| 20260503233658 | 69 | 330 | 8.0 | 15.0 | 0.00 | 0.14 | 0.14 | 44 | 1005.1 |
| 20260503233158 | 69 | 349 | 8.0 | 20.0 | 0.00 | 0.14 | 0.14 | 43 | 1005.1 |
| 20260503232658 | 69 | 342 | 8.0 | 20.0 | 0.00 | 0.14 | 0.14 | 43 | 1005.2 |
| 20260503232158 | 69 | 4 | 8.0 | 20.0 | 0.00 | 0.14 | 0.14 | 43 | 1005.1 |
| 20260503231657 | 69 | 343 | 9.0 | 20.0 | 0.00 | 0.14 | 0.14 | 43 | 1005.2 |
| 20260503231157 | 69 | 6 | 11.0 | 20.0 | 0.00 | 0.14 | 0.14 | 42 | 1005.1 |
| 20260503230659 | 69 | 6 | 10.0 | 21.0 | 0.00 | 0.14 | 0.14 | 42 | 1005.2 |
| 20260503230422 | 69 | 338 | 10.0 | 21.0 | 0.00 | 0.14 | 0.14 | 43 | 1005.3 |
| 20260503225653 | 69 | 332 | 10.0 | 21.0 | 0.00 | 0.14 | 0.14 | 43 | 1005.3 |
| 20260503225153 | 69 | 352 | 11.0 | 21.0 | 0.00 | 0.14 | 0.14 | 43 | 1005.4 |
| 20260503224653 | 69 | 346 | 12.0 | 23.0 | 0.00 | 0.14 | 0.14 | 42 | 1005.5 |
| 20260503224153 | 69 | 305 | 11.0 | 23.0 | 0.00 | 0.14 | 0.14 | 42 | 1005.5 |
| 20260503223650 | 69 | 10 | 11.0 | 20.0 | 0.00 | 0.14 | 0.14 | 42 | 1005.4 |
| 20260503223153 | 69 | 340 | 12.0 | 21.0 | 0.00 | 0.14 | 0.14 | 42 | 1005.4 |
| 20260503222912 | 69 | 8 | 12.0 | 21.0 | 0.00 | 0.14 | 0.14 | 43 | 1005.5 |
| 20260503222148 | 69 | 347 | 11.0 | 21.0 | 0.00 | 0.14 | 0.14 | 43 | 1005.6 |
| 20260503221650 | 69 | 345 | 11.0 | 21.0 | 0.00 | 0.14 | 0.14 | 43 | 1005.5 |
| 20260503221152 | 69 | 352 | 11.0 | 21.0 | 0.00 | 0.14 | 0.14 | 42 | 1005.6 |
| 20260503220648 | 69 | 338 | 9.0 | 19.0 | 0.00 | 0.14 | 0.14 | 42 | 1005.6 |
| 20260503220146 | 68 | 7 | 8.0 | 17.0 | 0.00 | 0.14 | 0.14 | 43 | 1005.6 |
| 20260503215648 | 69 | 20 | 9.0 | 20.0 | 0.00 | 0.14 | 0.14 | 42 | 1005.6 |
| 20260503215141 | 68 | 321 | 9.0 | 20.0 | 0.00 | 0.14 | 0.14 | 43 | 1005.7 |
| 20260503214642 | 69 | 226 | 8.0 | 20.0 | 0.00 | 0.14 | 0.14 | 43 | 1005.7 |
| 20260503214139 | 69 | 333 | 8.0 | 22.0 | 0.00 | 0.14 | 0.14 | 42 | 1005.8 |
| 20260503213641 | 69 | 0 | 8.0 | 22.0 | 0.00 | 0.14 | 0.14 | 41 | 1005.8 |
| 20260503213140 | 69 | 354 | 8.0 | 22.0 | 0.00 | 0.14 | 0.14 | 40 | 1005.8 |
| 20260503212641 | 69 | 326 | 8.0 | 22.0 | 0.00 | 0.14 | 0.14 | 41 | 1005.9 |
| 20260503212140 | 69 | 347 | 7.0 | 19.0 | 0.00 | 0.14 | 0.14 | 42 | 1006.0 |
| 20260503211639 | 69 | 5 | 6.0 | 14.0 | 0.00 | 0.14 | 0.14 | 41 | 1006.1 |
| 20260503211135 | 69 | 335 | 8.0 | 19.0 | 0.00 | 0.14 | 0.14 | 42 | 1006.2 |
| 20260503210638 | 68 | 341 | 10.0 | 22.0 | 0.00 | 0.14 | 0.14 | 42 | 1006.3 |
| 20260503210137 | 68 | 297 | 8.0 | 22.0 | 0.00 | 0.14 | 0.14 | 41 | 1006.4 |
| 20260503205636 | 68 | 342 | 10.0 | 22.0 | 0.00 | 0.14 | 0.14 | 47 | 1006.4 |
| 20260503205135 | 67 | 15 | 10.0 | 22.0 | 0.00 | 0.14 | 0.14 | 42 | 1006.6 |
| 20260503204853 | 67 | 330 | 8.0 | 21.0 | 0.00 | 0.14 | 0.14 | 42 | 1006.7 |
| 20260503204134 | 67 | 20 | 10.0 | 21.0 | 0.00 | 0.14 | 0.14 | 43 | 1006.9 |
| 20260503203853 | 67 | 347 | 11.0 | 26.0 | 0.00 | 0.14 | 0.14 | 42 | 1007.0 |
| 20260503203618 | 67 | 329 | 13.0 | 26.0 | 0.00 | 0.14 | 0.14 | 42 | 1007.1 |
| 20260503202622 | 66 | 344 | 13.0 | 26.0 | 0.01 | 0.14 | 0.14 | 41 | 1007.1 |
| 20260503202116 | 66 | 350 | 11.0 | 31.0 | 0.01 | 0.14 | 0.14 | 41 | 1007.3 |
| 20260503201835 | 66 | 210 | 12.0 | 31.0 | 0.01 | 0.14 | 0.14 | 41 | 1007.4 |
| 20260503201110 | 65 | 279 | 15.0 | 31.0 | 0.01 | 0.14 | 0.14 | 42 | 1007.5 |
| 20260503200610 | 65 | 336 | 15.0 | 31.0 | 0.01 | 0.14 | 0.14 | 42 | 1007.6 |
| 20260503195613 | 65 | 5 | 13.0 | 24.0 | 0.01 | 0.14 | 0.14 | 41 | 1007.6 |
| 20260503195331 | 65 | 179 | 11.0 | 23.0 | 0.01 | 0.14 | 0.14 | 41 | 1007.6 |
| 20260503194838 | 66 | 293 | 9.0 | 24.0 | 0.01 | 0.14 | 0.14 | 41 | 1007.7 |
| 20260503194111 | 67 | 290 | 9.0 | 24.0 | 0.01 | 0.14 | 0.14 | 43 | 1007.8 |
| 20260503193610 | 66 | 253 | 9.0 | 24.0 | 0.01 | 0.14 | 0.14 | 44 | 1007.8 |
| 20260503193116 | 65 | 318 | 9.0 | 24.0 | 0.01 | 0.14 | 0.14 | 44 | 1007.9 |
| 20260503192610 | 65 | 289 | 8.0 | 23.0 | 0.00 | 0.13 | 0.13 | 45 | 1008.0 |
| 20260503192114 | 64 | 333 | 8.0 | 20.0 | 0.00 | 0.13 | 0.13 | 47 | 1008.0 |
| 20260503191615 | 64 | 283 | 9.0 | 20.0 | 0.00 | 0.13 | 0.13 | 47 | 1008.2 |
| 20260503191113 | 63 | 326 | 8.0 | 20.0 | 0.00 | 0.13 | 0.13 | 49 | 1008.2 |
| 20260503190614 | 63 | 303 | 7.0 | 17.0 | 0.00 | 0.13 | 0.13 | 53 | 1008.2 |
| 20260503190114 | 62 | 330 | 6.0 | 17.0 | 0.00 | 0.13 | 0.13 | 55 | 1008.2 |
| 20260503185603 | 62 | 295 | 6.0 | 17.0 | 0.00 | 0.13 | 0.13 | 55 | 1008.2 |
| 20260503185057 | 61 | 342 | 6.0 | 17.0 | 0.00 | 0.13 | 0.13 | 58 | 1008.4 |
| 20260503184549 | 61 | 253 | 6.0 | 17.0 | 0.00 | 0.13 | 0.13 | 57 | 1008.5 |
| 20260503184533 | 61 | 284 | 6.0 | 19.0 | 0.00 | 0.13 | 0.13 | 60 | 1008.5 |
| 20260503183531 | 60 | 345 | 6.0 | 19.0 | 0.00 | 0.13 | 0.13 | 62 | 1008.6 |
| 20260503183026 | 59 | 2 | 7.0 | 19.0 | 0.00 | 0.13 | 0.13 | 62 | 1008.7 |
| 20260503182521 | 58 | 131 | 8.0 | 19.0 | 0.00 | 0.13 | 0.13 | 62 | 1008.8 |
| 20260503182009 | 58 | 8 | 7.0 | 19.0 | 0.00 | 0.13 | 0.13 | 65 | 1009.0 |
| 20260503181505 | 58 | 301 | 6.0 | 19.0 | 0.00 | 0.13 | 0.13 | 63 | 1009.3 |
| 20260503181003 | 58 | 14 | 7.0 | 15.0 | 0.00 | 0.13 | 0.13 | 67 | 1009.2 |
| 20260503180711 | 56 | 286 | 8.0 | 16.0 | 0.00 | 0.13 | 0.13 | 66 | 1009.4 |
| 20260503175942 | 56 | 280 | 7.0 | 16.0 | 0.00 | 0.13 | 0.13 | 67 | 1009.8 |
| 20260503175437 | 55 | 286 | 6.0 | 16.0 | 0.00 | 0.13 | 0.13 | 70 | 1009.9 |
| 20260503174930 | 54 | 252 | 7.0 | 15.0 | 0.01 | 0.13 | 0.13 | 75 | 1010.0 |
| 20260503174425 | 53 | 293 | 7.0 | 15.0 | 0.02 | 0.13 | 0.13 | 75 | 1010.1 |
| 20260503173917 | 52 | 245 | 7.0 | 14.0 | 0.02 | 0.13 | 0.13 | 76 | 1010.1 |
| 20260503173407 | 51 | 297 | 7.0 | 19.0 | 0.02 | 0.13 | 0.13 | 77 | 1010.1 |
| 20260503172902 | 51 | 259 | 5.0 | 19.0 | 0.03 | 0.13 | 0.13 | 78 | 1010.2 |
| 20260503172616 | 50 | 269 | 4.0 | 12.0 | 0.03 | 0.13 | 0.13 | 79 | 1010.5 |
| 20260503171851 | 50 | 243 | 5.0 | 13.0 | 0.04 | 0.13 | 0.13 | 78 | 1011.0 |
| 20260503171405 | 49 | 252 | 5.0 | 13.0 | 0.04 | 0.13 | 0.13 | 79 | 1011.1 |
| 20260503170853 | 49 | 269 | 4.0 | 13.0 | 0.05 | 0.13 | 0.13 | 80 | 1011.2 |
| 20260503170350 | 49 | 257 | 4.0 | 13.0 | 0.05 | 0.13 | 0.13 | 80 | 1011.3 |
| 20260503150825 | 49 | 302 | 10.0 | 33.0 | 0.03 | 0.03 | 0.03 | 74 | 1013.8 |
| 20260503150545 | 50 | 347 | 11.0 | 33.0 | 0.01 | 0.01 | 0.01 | 71 | 1013.9 |
| 20260503140309 | 51 | 342 | 8.0 | 18.0 | 0.00 | 0.00 | 0.00 | 63 | 1013.2 |
| 20260503131300 | 49 | 316 | 5.0 | 14.0 | 0.00 | 0.00 | 0.00 | 62 | 1013.9 |
| 20260503130252 | 49 | 8 | 5.0 | 14.0 | 0.00 | 0.00 | 0.00 | 63 | 1013.6 |
| 20260503110730 | 45 | 306 | 1.0 | 4.0 | 0.00 | 0.00 | 0.00 | 66 | 1013.4 |
| 20260503110239 | 45 | 300 | 1.0 | 5.0 | 0.00 | 0.00 | 0.00 | 66 | 1013.4 |
| 20260503100207 | 44 | 322 | 1.0 | 4.0 | 0.00 | 0.00 | 0.00 | 67 | 1013.6 |